DELTA 1 DEB, 42558

Orbit data source: Space-Track

DELTA 1 DEB, 42558 is space debris in SSO originally from a launch on Sun, 23 Jul 1972 UTC launched from the Air Force Western Test Range (AFWTR). Debris objects in space refer to the collection of defunct objects orbiting the Earth. Examples of debris include non-operational satellites, rocket bodies, and fragments generated from explosions, collisions, or faulty payload assembly.

Loading next visibility...
Identifier
42558, 1972-058JR
Orbit
SSO
Country
Flag of USUS
Related business
Manufacturer
Unknown
Mission
Spacecraft
Bus & Motor
Unknown
Mass
Unknown
Launch date (UTC)
1972-07-23 (54 years ago)
Launch vehicle
Unknown
Launch site
Air Force Western Test Range (AFWTR)
Object type
Payload
Rocket body
Debris
Shape & HBR
Unknown shape, 0.1 m
Radar Cross Section
Small (<0.1 m²)

Expand to show TLE details & history
Last TLE update: 1 day ago

TLE from 1 day ago
0 DELTA 1 DEB
1 42558U 72058JR  26149.35917752  .00001488  00000-0  26706-3 0  9992
2 42558  97.8850 115.5659 0038543  86.6359 273.9254 14.67646253667730
Epoch: 2026-05-29T08:37Z
TLE epoch observation values (Epoch: 2026-05-29T08:37:12.937Z)
Latitude
-0.00005°
Longitude
99.37131°
Altitude
669.842 km
Speed
7.523 km/s
True Right ascension
07h 42m 15s
True Declination
0° 00' 00"
Sunlit
Object was in daylight at epoch
Visualization orbit readout
Latitude
Unknown
Longitude
Unknown
Altitude
Unknown
Speed
Unknown
Apparent Right ascension
Unknown
Apparent Declination
Unknown
Sunlit
N/A
Visualization observer readout
Local Sidereal Time
00:44:26
Azimuth
Unknown
Elevation
Unknown
Doppler factor
Unknown
Orbital elements
Apogee altitude
692.798 km
Perigee altitude
638.5 km
Semi-major axis
7,043.786 km
Eccentricity
0.00385
Inclination
97.885°
RAAN
115.5659°
Arg. of periapsis
86.6359°
True anomaly
273.48462°
Mean anomaly
273.9254°
Eccentric anomaly
273.70503°
Mean motion
3.67142 °/min
Orbital period
98.05 mins
BSTAR
0.00026706
Loading maneuver chart data...
Computing Atmospheric mass density...
Loading historical data...
Loading historical data...
Loading historical data...
Loading historical data...
Loading historical data...
Loading historical data...
Loading historical data...

Documentation

Showing up to 5 results
|